TimeEDT,TemperatureF,Dew PointF,Humidity,Sea Level PressureIn,VisibilityMPH,Wind Direction,Wind SpeedMPH,Gust SpeedMPH,PrecipitationIn,Events,Conditions,WindDirDegrees,DateUTC
12:53 AM,48.9,39.0,69,30.13,10.0,NNW,4.6,-,N/A,,Overcast,330,2012-10-07 04:53:00
1:53 AM,48.0,39.0,71,30.11,10.0,NNW,4.6,-,N/A,,Overcast,330,2012-10-07 05:53:00
2:53 AM,48.0,39.0,71,30.12,10.0,NNW,5.8,-,N/A,,Overcast,330,2012-10-07 06:53:00
3:53 AM,46.9,37.9,71,30.11,10.0,Calm,Calm,-,N/A,,Overcast,0,2012-10-07 07:53:00
4:53 AM,46.9,39.0,74,30.11,10.0,Calm,Calm,-,N/A,,Overcast,0,2012-10-07 08:53:00
5:53 AM,46.9,39.9,77,30.11,10.0,NNW,3.5,-,N/A,,Overcast,340,2012-10-07 09:53:00
6:53 AM,46.0,39.0,76,30.13,10.0,NNW,3.5,-,N/A,,Overcast,330,2012-10-07 10:53:00
7:53 AM,46.0,39.0,76,30.13,10.0,NW,3.5,-,N/A,,Overcast,320,2012-10-07 11:53:00
8:53 AM,46.0,39.0,76,30.15,10.0,NW,4.6,-,N/A,,Overcast,320,2012-10-07 12:53:00
9:53 AM,46.0,39.0,76,30.17,10.0,NW,5.8,-,N/A,,Overcast,320,2012-10-07 13:53:00
10:53 AM,46.9,37.9,71,30.19,10.0,NW,5.8,-,N/A,,Overcast,310,2012-10-07 14:53:00
11:53 AM,48.0,37.9,68,30.18,10.0,Calm,Calm,-,N/A,,Overcast,0,2012-10-07 15:53:00
12:53 PM,50.0,37.9,63,30.18,10.0,Calm,Calm,-,N/A,,Overcast,0,2012-10-07 16:53:00
1:53 PM,54.0,36.0,51,30.17,10.0,WNW,8.1,-,N/A,,Scattered Clouds,300,2012-10-07 17:53:00
2:53 PM,53.1,34.0,48,30.16,10.0,West,5.8,-,N/A,,Scattered Clouds,260,2012-10-07 18:53:00
3:53 PM,53.1,33.1,47,30.15,10.0,Variable,5.8,-,N/A,,Partly Cloudy,0,2012-10-07 19:53:00
4:53 PM,52.0,33.1,49,30.15,10.0,WNW,5.8,-,N/A,,Clear,300,2012-10-07 20:53:00
5:53 PM,52.0,33.1,49,30.15,10.0,WNW,5.8,-,N/A,,Scattered Clouds,300,2012-10-07 21:53:00
6:53 PM,51.1,33.1,50,30.16,10.0,NW,3.5,-,N/A,,Clear,310,2012-10-07 22:53:00
7:53 PM,45.0,37.0,74,30.17,10.0,Calm,Calm,-,N/A,,Clear,0,2012-10-07 23:53:00
8:53 PM,42.1,37.0,82,30.18,10.0,Calm,Calm,-,N/A,,Clear,0,2012-10-08 00:53:00
9:53 PM,39.9,36.0,86,30.20,10.0,Calm,Calm,-,N/A,,Clear,0,2012-10-08 01:53:00
10:53 PM,39.9,36.0,86,30.19,10.0,Calm,Calm,-,N/A,,Clear,0,2012-10-08 02:53:00
11:53 PM,39.9,35.1,83,30.19,10.0,Calm,Calm,-,N/A,,Clear,0,2012-10-08 03:53:00